Winnsboro, SC

12:43 AM EST on November 19, 2017 (GMT -0500)
Fairfield County

Weather History for KFDW - April, 2013

Change the Weather History Date:

Sunday, April 28, 2013

  Actual Average Record
Temperature  
Mean Temperature 62 °F -  
Max Temperature 69 °F 77 °F 86 °F (2014)
Min Temperature 55 °F 50 °F 48 °F (2015)
Degree Days  
Heating Degree Days 3    
Growing Degree Days 12 (Base 50)    
Moisture  
Dew Point 61 °F    
Average Humidity 96    
Maximum Humidity 100    
Minimum Humidity 82    
Precipitation  
Precipitation 0.00 in - - ()
Sea Level Pressure  
Sea Level Pressure 30.15 in    
Wind  
Wind Speed 6 mph (ESE)    
Max Wind Speed 10 mph    
Max Gust Speed 18 mph    
Visibility 7 miles    
Events Rain , Thunderstorm    
Averages and records for this station are not official NWS values.
T = Trace of Precipitation, MM = Missing Value Source: NWS Daily Summary

Daily Weather History Graph

Daily Weather History Graph

Search for Another Location

Airport or City:

Trip Planner

Search our weather history database for the weather conditions in past years. The results will help you decide how hot, cold, wet, or windy it might be!

Date:

Astronomy

Apr. 28, 2013 Rise Set
Actual Time 6:37 AM EDT 8:06 PM EDT
Civil Twilight 6:11 AM EDT 8:33 PM EDT
Nautical Twilight 5:39 AM EDT 9:05 PM EDT
Astronomical Twilight 5:05 AM EDT 9:38 PM EDT
Moon 11:30 PM EDT (4/28) 8:57 AM EDT (4/28)
Length of Visible Light 14h 22m
Length of Day
13h 28m
Waning Gibbous, 89% of the Moon is Illuminated
Apr 28
Waning Gibbous
May 2
Last Quarter
May 9
New
May 18
First Quarter
May 25
Full

Hourly Weather History & Observations

Time (EDT) Temp. Dew Point Humidity Pressure Visibility Wind Dir Wind Speed Gust Speed Precip Events Conditions
12:15 AM 59.0 °F 57.2 °F 94% 30.24 in 10.0 mi East 8.1 mph - N/A   Clear
12:35 AM 59.0 °F 57.2 °F 94% 30.23 in 10.0 mi ESE 6.9 mph - N/A   Clear
12:55 AM 59.0 °F 57.2 °F 94% 30.24 in 10.0 mi ESE 4.6 mph - N/A   Clear
1:15 AM 59.0 °F 57.2 °F 94% 30.25 in 10.0 mi SE 3.5 mph - N/A   Scattered Clouds
1:35 AM 59.0 °F 57.2 °F 94% 30.25 in 10.0 mi SE 3.5 mph - N/A   Scattered Clouds
1:55 AM 59.0 °F 57.2 °F 94% 30.24 in 10.0 mi ESE 5.8 mph - N/A   Scattered Clouds
2:15 AM 59.0 °F 55.4 °F 88% 30.22 in 10.0 mi East 5.8 mph - N/A   Scattered Clouds
2:35 AM 59.0 °F 55.4 °F 88% 30.22 in 10.0 mi East 4.6 mph - N/A   Scattered Clouds
2:55 AM 59.0 °F 55.4 °F 88% 30.22 in 10.0 mi ESE 3.5 mph - N/A   Scattered Clouds
3:15 AM 59.0 °F 55.4 °F 88% 30.20 in 10.0 mi East 6.9 mph - N/A   Scattered Clouds
3:35 AM 59.0 °F 55.4 °F 88% 30.20 in 10.0 mi ESE 4.6 mph - N/A   Scattered Clouds
3:55 AM 59.0 °F 53.6 °F 82% 30.20 in 10.0 mi ESE 4.6 mph - N/A   Mostly Cloudy
4:15 AM 59.0 °F 53.6 °F 82% 30.20 in 10.0 mi Calm Calm - N/A   Mostly Cloudy
4:35 AM 59.0 °F 55.4 °F 88% 30.21 in 10.0 mi Calm Calm - N/A Rain Light Rain
4:55 AM 59.0 °F 55.4 °F 88% 30.20 in 10.0 mi SE 4.6 mph - N/A Rain Light Rain
5:15 AM 57.2 °F 55.4 °F 94% 30.18 in 10.0 mi ESE 4.6 mph - N/A Rain Light Rain
5:35 AM 57.2 °F 55.4 °F 94% 30.20 in 7.0 mi North 3.5 mph - N/A Rain Rain
5:55 AM 55.4 °F 55.4 °F 100% 30.21 in 7.0 mi North 3.5 mph - N/A Rain Rain
6:15 AM 57.2 °F 57.2 °F 100% 30.21 in 10.0 mi Calm Calm - N/A Rain Rain
6:35 AM 55.4 °F 55.4 °F 100% 30.21 in 3.0 mi Calm Calm - N/A Rain Rain
6:55 AM 55.4 °F 55.4 °F 100% 30.21 in 5.0 mi Calm Calm - N/A Rain Rain
7:15 AM 55.4 °F 55.4 °F 100% 30.20 in 5.0 mi ESE 3.5 mph - N/A Rain Rain
7:35 AM 55.4 °F 55.4 °F 100% 30.19 in 7.0 mi ESE 6.9 mph - N/A Rain Light Rain
7:55 AM 55.4 °F 55.4 °F 100% 30.19 in 10.0 mi East 5.8 mph - N/A Rain Light Rain
8:15 AM 55.4 °F 55.4 °F 100% 30.19 in 7.0 mi East 4.6 mph - N/A Rain Light Rain
8:35 AM 57.2 °F 57.2 °F 100% 30.20 in 7.0 mi ESE 6.9 mph - N/A Rain Rain
8:55 AM 57.2 °F 57.2 °F 100% 30.19 in 7.0 mi East 6.9 mph - N/A   Light Drizzle
9:15 AM 59.0 °F 59.0 °F 100% 30.19 in 7.0 mi ESE 6.9 mph - N/A Rain Light Rain
9:35 AM 59.0 °F 59.0 °F 100% 30.20 in 7.0 mi SE 5.8 mph - N/A   Light Drizzle
9:55 AM 59.0 °F 59.0 °F 100% 30.19 in 7.0 mi ESE 6.9 mph - N/A Rain Light Rain
10:15 AM 59.0 °F 59.0 °F 100% 30.19 in 4.0 mi ESE 8.1 mph - N/A Rain Rain
10:35 AM 59.0 °F 59.0 °F 100% 30.19 in 5.0 mi ESE 6.9 mph - N/A Rain Light Rain
10:55 AM 60.8 °F 60.8 °F 100% 30.20 in 5.0 mi SE 4.6 mph - N/A Rain Light Rain
11:15 AM 60.8 °F 60.8 °F 100% 30.19 in 7.0 mi ESE 9.2 mph - N/A   Mostly Cloudy
11:35 AM 62.6 °F 62.6 °F 100% 30.20 in 7.0 mi SE 4.6 mph - N/A Rain Light Rain
11:55 AM 62.6 °F 62.6 °F 100% 30.19 in 5.0 mi SE 4.6 mph - N/A Rain Rain
12:15 PM 62.6 °F 62.6 °F 100% 30.19 in 5.0 mi SSE 4.6 mph - N/A   Light Drizzle
12:35 PM 62.6 °F 62.6 °F 100% 30.18 in 4.0 mi SSE 4.6 mph - N/A Rain Light Rain
12:55 PM 62.6 °F 62.6 °F 100% 30.17 in 4.0 mi SSE 5.8 mph - N/A   Light Drizzle
1:15 PM 64.4 °F 64.4 °F 100% 30.16 in 7.0 mi SSE 8.1 mph 16.1 mph N/A   Overcast
1:35 PM 64.4 °F 64.4 °F 100% 30.15 in 10.0 mi SSE 9.2 mph - N/A   Overcast
1:55 PM 66.2 °F 66.2 °F 100% 30.14 in 10.0 mi SSE 9.2 mph - N/A   Overcast
2:15 PM 66.2 °F 66.2 °F 100% 30.13 in 7.0 mi SSE 10.4 mph - N/A Rain Light Rain
2:35 PM 66.2 °F 66.2 °F 100% 30.13 in 10.0 mi SE 10.4 mph - N/A Rain Light Rain
2:55 PM 68.0 °F 68.0 °F 100% 30.12 in 10.0 mi SSE 6.9 mph 16.1 mph N/A   Overcast
3:15 PM 68.0 °F 66.2 °F 94% 30.12 in 10.0 mi SSE 9.2 mph 16.1 mph N/A   Overcast
3:35 PM 68.0 °F 66.2 °F 94% 30.11 in 10.0 mi South 6.9 mph - N/A   Mostly Cloudy
3:55 PM 68.0 °F 66.2 °F 94% 30.10 in 10.0 mi SSE 6.9 mph - N/A   Mostly Cloudy
4:15 PM 68.0 °F 66.2 °F 94% 30.10 in 10.0 mi South 6.9 mph - N/A   Mostly Cloudy
4:35 PM 69.8 °F 66.2 °F 88% 30.09 in 10.0 mi South 8.1 mph - N/A   Mostly Cloudy
4:55 PM 69.8 °F 66.2 °F 88% 30.08 in 10.0 mi SSE 8.1 mph - N/A   Overcast
5:15 PM 69.8 °F 66.2 °F 88% 30.07 in 10.0 mi SSE 5.8 mph - N/A   Scattered Clouds
5:35 PM 69.8 °F 66.2 °F 88% 30.07 in 10.0 mi SSE 3.5 mph - N/A   Scattered Clouds
5:55 PM 69.8 °F 66.2 °F 88% 30.06 in 10.0 mi ESE 5.8 mph - N/A   Mostly Cloudy
6:15 PM 69.8 °F 68.0 °F 94% 30.05 in 10.0 mi ENE 5.8 mph - N/A   Mostly Cloudy
6:35 PM 69.8 °F 68.0 °F 94% 30.04 in 10.0 mi ENE 6.9 mph - N/A Rain Light Rain
7:15 PM 68.0 °F 68.0 °F 100% 30.03 in 4.0 mi NE 8.1 mph - N/A Rain Rain
7:35 PM 68.0 °F 68.0 °F 100% 30.04 in 3.0 mi SW 6.9 mph - N/A Rain Heavy Rain
7:55 PM 64.4 °F 64.4 °F 100% 30.04 in 1.8 mi SSE 3.5 mph - N/A Rain Heavy Rain
8:15 PM 64.4 °F 64.4 °F 100% 30.04 in 1.2 mi North 4.6 mph - N/A Rain Heavy Rain
8:35 PM 64.4 °F 64.4 °F 100% 30.05 in 2.0 mi NNW 10.4 mph - N/A Rain , Thunderstorm Heavy Thunderstorms and Rain
9:15 PM 62.6 °F 62.6 °F 100% 30.07 in 1.8 mi NNW 4.6 mph - N/A Rain Heavy Rain
9:35 PM 60.8 °F 60.8 °F 100% 30.08 in 2.0 mi NW 10.4 mph 18.4 mph N/A Rain , Thunderstorm Heavy Thunderstorms and Rain
9:55 PM 60.8 °F 60.8 °F 100% 30.08 in 5.0 mi North 10.4 mph - N/A Rain , Thunderstorm Heavy Thunderstorms and Rain
10:15 PM 60.8 °F 60.8 °F 100% 30.08 in 7.0 mi North 4.6 mph - N/A Rain Heavy Rain
10:35 PM 60.8 °F 60.8 °F 100% 30.08 in 7.0 mi NE 6.9 mph - N/A Rain Rain
10:55 PM 60.8 °F 60.8 °F 100% 30.09 in 2.5 mi NE 6.9 mph - N/A Rain Heavy Rain
11:15 PM 60.8 °F 60.8 °F 100% 30.09 in 4.0 mi ENE 6.9 mph - N/A Rain Rain
11:35 PM 60.8 °F 60.8 °F 100% 30.08 in 4.0 mi ENE 4.6 mph - N/A Rain Heavy Rain
11:55 PM 60.8 °F 60.8 °F 100% 30.07 in 5.0 mi East 5.8 mph - N/A Rain Rain